UAE817 OMDB-OERK

Flight info

Callsign UAE817
Flight time 1h 37m
Altitude 30000
Route ANVIX R401 GIDIS G783 RIGIL M628 AMBAG M321 NAGUB
Aircraft B77W/H-SDE1E2E3FGHIJ2J3J4J5M1RWXY/LB1D1

Departure

Time 2026-04-20 14:17
Airport Dubai International Airport (OMDB)

Arrival

Time 2026-04-20 15:55
Airport King Khalid International Airport (OERK)
Time Latitude Longitude Altitude Speed Heading
2026-04-20 13:45 25.24588 55.36428 31 ft 0 kts 31°
2026-04-20 14:02 25.24569 55.36415 33 ft 4 kts 28°
2026-04-20 14:03 25.24545 55.36402 31 ft 4 kts 23°
2026-04-20 14:03 25.24520 55.36391 31 ft 4 kts 19°
2026-04-20 14:03 25.24494 55.36383 31 ft 4 kts 12°
2026-04-20 14:03 25.24467 55.36378 31 ft 4 kts
2026-04-20 14:04 25.24441 55.36379 31 ft 4 kts 339°
2026-04-20 14:04 25.24426 55.36390 31 ft 0 kts 302°
2026-04-20 14:06 25.24440 55.36366 31 ft 11 kts 303°
2026-04-20 14:06 25.24489 55.36283 28 ft 13 kts 303°
2026-04-20 14:07 25.24540 55.36192 29 ft 16 kts 301°
2026-04-20 14:07 25.24600 55.36083 27 ft 17 kts 301°
2026-04-20 14:07 25.24661 55.35973 29 ft 17 kts 301°
2026-04-20 14:07 25.24723 55.35864 28 ft 17 kts 302°
2026-04-20 14:08 25.24787 55.35753 30 ft 18 kts 302°
2026-04-20 14:08 25.24858 55.35640 30 ft 18 kts 307°
2026-04-20 14:08 25.24928 55.35526 28 ft 18 kts 302°
2026-04-20 14:08 25.24994 55.35409 30 ft 18 kts 301°
2026-04-20 14:09 25.25059 55.35294 30 ft 18 kts 302°
2026-04-20 14:09 25.25131 55.35182 29 ft 18 kts 308°
2026-04-20 14:09 25.25201 55.35068 29 ft 18 kts 302°
2026-04-20 14:09 25.25267 55.34951 30 ft 18 kts 302°
2026-04-20 14:10 25.25346 55.34846 29 ft 18 kts 326°
2026-04-20 14:10 25.25468 55.34819 29 ft 21 kts 11°
2026-04-20 14:10 25.25610 55.34900 30 ft 23 kts 31°
2026-04-20 14:10 25.25749 55.34993 29 ft 23 kts 31°
2026-04-20 14:11 25.25888 55.35087 31 ft 23 kts 31°
2026-04-20 14:11 25.26026 55.35180 26 ft 23 kts 31°
2026-04-20 14:11 25.26101 55.35230 27 ft 9 kts 31°
2026-04-20 14:11 25.26139 55.35279 27 ft 8 kts 92°
2026-04-20 14:12 25.26098 55.35363 27 ft 20 kts 121°
2026-04-20 14:12 25.25991 55.35552 27 ft 36 kts 122°
2026-04-20 14:12 25.25862 55.35782 27 ft 35 kts 122°
2026-04-20 14:12 25.25738 55.36002 27 ft 33 kts 122°
2026-04-20 14:13 25.25616 55.36219 27 ft 34 kts 122°
2026-04-20 14:13 25.25493 55.36438 27 ft 33 kts 122°
2026-04-20 14:13 25.25374 55.36649 26 ft 32 kts 121°
2026-04-20 14:13 25.25259 55.36855 27 ft 31 kts 122°
2026-04-20 14:14 25.25147 55.37053 28 ft 30 kts 122°
2026-04-20 14:14 25.25037 55.37248 28 ft 30 kts 121°
2026-04-20 14:14 25.24926 55.37444 28 ft 30 kts 122°
2026-04-20 14:14 25.24817 55.37640 28 ft 30 kts 122°
2026-04-20 14:15 25.24728 55.37796 27 ft 14 kts 122°
2026-04-20 14:15 25.24679 55.37884 27 ft 13 kts 122°
2026-04-20 14:15 25.24684 55.37969 28 ft 13 kts 41°
2026-04-20 14:15 25.24753 55.38015 30 ft 10 kts 31°
2026-04-20 14:16 25.24810 55.38020 30 ft 8 kts 316°
2026-04-20 14:16 25.24834 55.37976 30 ft 0 kts 301°
2026-04-20 14:16 25.24835 55.37976 30 ft 2 kts 301°
2026-04-20 14:17 25.24921 55.37819 31 ft 56 kts 302°
2026-04-20 14:17 25.25279 55.37175 31 ft 137 kts 301°
2026-04-20 14:17 25.25881 55.36080 66 ft 194 kts 301°
2026-04-20 14:17 25.26595 55.34779 709 ft 199 kts 301°
2026-04-20 14:18 25.27305 55.33481 1606 ft 195 kts 302°
2026-04-20 14:18 25.28012 55.32218 2419 ft 194 kts 302°
2026-04-20 14:18 25.28733 55.30934 3065 ft 199 kts 302°
2026-04-20 14:18 25.29273 55.29532 3652 ft 205 kts 276°
2026-04-20 14:19 25.28978 55.27986 4239 ft 209 kts 249°
2026-04-20 14:19 25.28360 55.26510 4879 ft 213 kts 246°
2026-04-20 14:19 25.27712 55.25030 5560 ft 214 kts 247°
2026-04-20 14:19 25.27068 55.23546 6238 ft 215 kts 247°
2026-04-20 14:20 25.26424 55.22051 6827 ft 216 kts 247°
2026-04-20 14:20 25.25756 55.20496 7107 ft 236 kts 247°
2026-04-20 14:20 25.25034 55.18808 7574 ft 248 kts 245°
2026-04-20 14:20 25.23935 55.17302 8071 ft 260 kts 215°
2026-04-20 14:21 25.22203 55.16654 8651 ft 272 kts 182°
2026-04-20 14:21 25.20292 55.16767 9052 ft 280 kts 171°
2026-04-20 14:21 25.18507 55.17649 9095 ft 287 kts 136°
2026-04-20 14:21 25.17334 55.19468 9542 ft 296 kts 116°
2026-04-20 14:22 25.16372 55.21491 10154 ft 305 kts 116°
2026-04-20 14:22 25.15373 55.23585 10908 ft 311 kts 116°
2026-04-20 14:22 25.14350 55.25724 11743 ft 317 kts 116°
2026-04-20 14:22 25.13310 55.27899 12663 ft 323 kts 116°
2026-04-20 14:23 25.12251 55.30108 13543 ft 330 kts 116°
2026-04-20 14:23 25.11167 55.32362 14361 ft 333 kts 117°
2026-04-20 14:23 25.10112 55.34656 14926 ft 337 kts 114°
2026-04-20 14:23 25.09141 55.37032 15148 ft 346 kts 112°
2026-04-20 14:24 25.08141 55.39522 15400 ft 374 kts 113°
2026-04-20 14:24 25.07009 55.42233 15604 ft 402 kts 116°
2026-04-20 14:24 25.05573 55.44984 15954 ft 422 kts 121°
2026-04-20 14:24 25.04001 55.47773 16626 ft 432 kts 122°
2026-04-20 14:25 25.02392 55.50594 17463 ft 436 kts 122°
2026-04-20 14:25 25.00780 55.53430 18369 ft 438 kts 122°
2026-04-20 14:25 24.99159 55.56303 19079 ft 444 kts 122°
2026-04-20 14:25 24.97521 55.59227 19705 ft 451 kts 122°
2026-04-20 14:26 24.95862 55.62197 20335 ft 458 kts 122°
2026-04-20 14:26 24.94187 55.65203 20999 ft 463 kts 122°
2026-04-20 14:26 24.92490 55.68247 21667 ft 469 kts 122°
2026-04-20 14:26 24.90774 55.71325 22295 ft 475 kts 122°
2026-04-20 14:27 24.89029 55.74450 22924 ft 481 kts 123°
2026-04-20 14:27 24.87270 55.77597 23505 ft 486 kts 123°
2026-04-20 14:27 24.85487 55.80787 24063 ft 490 kts 123°
2026-04-20 14:27 24.83699 55.83985 24672 ft 491 kts 123°
2026-04-20 14:28 24.81902 55.87190 25273 ft 491 kts 124°
2026-04-20 14:28 24.79787 55.90130 25669 ft 493 kts 139°
2026-04-20 14:28 24.76967 55.92249 26154 ft 491 kts 157°
2026-04-20 14:28 24.73747 55.93471 26783 ft 487 kts 171°
2026-04-20 14:29 24.70399 55.93811 27330 ft 482 kts 185°
2026-04-20 14:29 24.67089 55.93601 27800 ft 485 kts 186°
2026-04-20 14:29 24.63721 55.93290 28169 ft 486 kts 192°
2026-04-20 14:29 24.60455 55.92311 28539 ft 487 kts 204°
2026-04-20 14:30 24.57410 55.90701 29015 ft 485 kts 213°
2026-04-20 14:30 24.54708 55.88503 29461 ft 483 kts 223°
2026-04-20 14:30 24.52207 55.86028 29855 ft 485 kts 224°
2026-04-20 14:30 24.50520 55.84401 30107 ft 488 kts 221°
2026-04-20 14:31 24.47741 55.82230 30507 ft 491 kts 214°
2026-04-20 14:31 24.44765 55.80376 30936 ft 493 kts 210°
2026-04-20 14:31 24.41622 55.78819 31345 ft 496 kts 204°
2026-04-20 14:31 24.38370 55.77495 31654 ft 500 kts 203°
2026-04-20 14:32 24.35082 55.76213 31965 ft 503 kts 203°
2026-04-20 14:32 24.31776 55.74942 32355 ft 503 kts 203°
2026-04-20 14:32 24.28461 55.73662 32689 ft 505 kts 204°
2026-04-20 14:32 24.25186 55.72385 33052 ft 506 kts 204°
2026-04-20 14:33 24.21869 55.71079 33428 ft 507 kts 204°
2026-04-20 14:33 24.18553 55.69765 33797 ft 508 kts 204°
2026-04-20 14:33 24.15224 55.68441 34128 ft 508 kts 205°
2026-04-20 14:33 24.11901 55.67119 34493 ft 507 kts 205°
2026-04-20 14:34 24.08592 55.65804 34875 ft 506 kts 206°
2026-04-20 14:34 24.05287 55.64491 35258 ft 505 kts 206°
2026-04-20 14:34 24.01982 55.63179 35602 ft 505 kts 206°
2026-04-20 14:34 23.98699 55.61877 35952 ft 504 kts 207°
2026-04-20 14:35 23.95392 55.60567 36298 ft 504 kts 207°
2026-04-20 14:35 23.92103 55.59264 36643 ft 503 kts 207°
2026-04-20 14:35 23.88817 55.57964 36979 ft 502 kts 208°
2026-04-20 14:35 23.85530 55.56664 37295 ft 502 kts 208°
2026-04-20 14:36 23.82249 55.55367 37639 ft 501 kts 208°
2026-04-20 14:36 23.78956 55.54065 37759 ft 505 kts 208°
2026-04-20 14:36 23.72329 55.51443 37785 ft 506 kts 208°
2026-04-20 14:37 23.65775 55.48865 37805 ft 501 kts 208°
2026-04-20 14:37 23.59223 55.46286 37808 ft 499 kts 209°
2026-04-20 14:38 23.52686 55.43711 37812 ft 499 kts 209°
2026-04-20 14:38 23.46158 55.41142 37808 ft 499 kts 208°
2026-04-20 14:39 23.39610 55.38570 37800 ft 500 kts 208°
2026-04-20 14:39 23.33042 55.35991 37806 ft 502 kts 208°
2026-04-20 14:40 23.26483 55.33419 37808 ft 504 kts 208°
2026-04-20 14:40 23.19868 55.30831 37806 ft 506 kts 208°
2026-04-20 14:41 23.13235 55.28237 37789 ft 507 kts 208°
2026-04-20 14:41 23.06822 55.25302 37789 ft 483 kts 225°
2026-04-20 14:42 23.04423 55.22948 37799 ft 460 kts 240°
2026-04-20 14:42 23.02650 55.20138 37802 ft 446 kts 250°
2026-04-20 14:42 23.01409 55.17100 37794 ft 433 kts 262°
2026-04-20 14:42 23.00776 55.13961 37821 ft 425 kts 266°
2026-04-20 14:43 22.99617 55.07656 37803 ft 429 kts 266°
2026-04-20 14:43 22.98397 55.01278 37807 ft 433 kts 265°
2026-04-20 14:44 22.97170 54.95018 37800 ft 434 kts 265°
2026-04-20 14:44 22.95900 54.88605 37798 ft 434 kts 265°
2026-04-20 14:45 22.94637 54.82244 37796 ft 433 kts 265°
2026-04-20 14:45 22.93373 54.75881 37794 ft 431 kts 265°
2026-04-20 14:46 22.92110 54.69535 37796 ft 429 kts 265°
2026-04-20 14:46 22.90849 54.63210 37802 ft 428 kts 265°
2026-04-20 14:47 22.89591 54.56907 37800 ft 427 kts 265°
2026-04-20 14:48 22.87709 54.47507 37811 ft 426 kts 265°
2026-04-20 14:48 22.86445 54.41217 37807 ft 426 kts 265°
2026-04-20 14:49 22.85180 54.34931 37807 ft 426 kts 265°
2026-04-20 14:49 22.83914 54.28651 37805 ft 426 kts 265°
2026-04-20 14:50 22.82645 54.22373 37816 ft 426 kts 265°
2026-04-20 14:50 22.81373 54.16092 37801 ft 426 kts 265°
2026-04-20 14:51 22.80108 54.09860 37799 ft 425 kts 265°
2026-04-20 14:51 22.78838 54.03599 37799 ft 424 kts 266°
2026-04-20 14:52 22.78159 53.97475 37793 ft 415 kts 274°
2026-04-20 14:52 22.78234 53.91272 37800 ft 411 kts 278°
2026-04-20 14:53 22.78462 53.85075 37816 ft 412 kts 278°
2026-04-20 14:53 22.78681 53.78857 37815 ft 413 kts 278°
2026-04-20 14:54 22.78889 53.72627 37805 ft 414 kts 277°
2026-04-20 14:54 22.79626 53.49207 37808 ft 412 kts 277°
2026-04-20 14:55 22.80372 53.24376 37774 ft 412 kts 277°
2026-04-20 14:55 22.80594 53.16713 37797 ft 412 kts 277°
2026-04-20 14:56 22.80771 53.10535 37806 ft 411 kts 277°
2026-04-20 14:56 22.80946 53.04332 37799 ft 412 kts 277°
2026-04-20 14:57 22.81114 52.98310 37803 ft 412 kts 277°
2026-04-20 14:57 22.81285 52.92100 37800 ft 412 kts 277°
2026-04-20 14:58 22.81698 52.76649 37790 ft 413 kts 277°
2026-04-20 14:58 22.82333 52.51729 37787 ft 414 kts 277°
2026-04-20 14:59 22.82867 52.26817 37782 ft 413 kts 276°
2026-04-20 14:59 22.83353 52.01947 37789 ft 411 kts 276°
2026-04-20 15:00 22.83791 51.77643 37766 ft 409 kts 276°
2026-04-20 15:00 22.84198 51.52978 37783 ft 408 kts 276°
2026-04-20 15:01 22.85536 51.28478 37768 ft 407 kts 278°
2026-04-20 15:01 22.86344 51.16602 37778 ft 407 kts 278°
2026-04-20 15:02 22.86758 51.10464 37781 ft 408 kts 278°
2026-04-20 15:02 22.87172 51.04321 37780 ft 409 kts 278°
2026-04-20 15:03 22.87576 50.98303 37785 ft 409 kts 278°
2026-04-20 15:03 22.87987 50.92135 37781 ft 410 kts 278°
2026-04-20 15:04 22.88395 50.85974 37766 ft 410 kts 278°
2026-04-20 15:04 22.88802 50.79804 37783 ft 410 kts 278°
2026-04-20 15:05 22.89203 50.73670 37779 ft 410 kts 278°
2026-04-20 15:05 22.89605 50.67500 37776 ft 410 kts 278°
2026-04-20 15:06 22.90004 50.61328 37765 ft 410 kts 279°
2026-04-20 15:06 22.90402 50.55150 37783 ft 410 kts 278°
2026-04-20 15:07 22.90797 50.48972 37769 ft 410 kts 278°
2026-04-20 15:07 22.91189 50.42799 37774 ft 410 kts 278°
2026-04-20 15:08 22.91576 50.36667 37757 ft 410 kts 279°
2026-04-20 15:08 22.91963 50.30498 37771 ft 410 kts 278°
2026-04-20 15:09 22.92348 50.24327 37772 ft 410 kts 278°
2026-04-20 15:09 22.92731 50.18154 37755 ft 410 kts 278°
2026-04-20 15:10 22.93112 50.11972 37765 ft 411 kts 278°
2026-04-20 15:10 22.93491 50.05774 37765 ft 412 kts 278°
2026-04-20 15:11 22.93858 49.99743 37769 ft 412 kts 278°
2026-04-20 15:11 22.94234 49.93515 37765 ft 413 kts 278°
2026-04-20 15:12 22.94608 49.87281 37767 ft 413 kts 278°
2026-04-20 15:12 22.94977 49.81088 37764 ft 413 kts 278°
2026-04-20 15:13 22.95346 49.74857 37764 ft 413 kts 278°
2026-04-20 15:13 22.95712 49.68639 37760 ft 413 kts 278°
2026-04-20 15:14 22.96075 49.62422 37766 ft 412 kts 278°
2026-04-20 15:14 22.96434 49.56249 37761 ft 412 kts 278°
2026-04-20 15:15 22.96792 49.50044 37765 ft 412 kts 278°
2026-04-20 15:15 22.97147 49.43843 37759 ft 411 kts 278°
2026-04-20 15:16 22.97499 49.37658 37756 ft 411 kts 278°
2026-04-20 15:16 22.97849 49.31468 37755 ft 411 kts 278°
2026-04-20 15:17 22.98196 49.25282 37758 ft 410 kts 277°
2026-04-20 15:17 22.98540 49.19105 37757 ft 410 kts 277°
2026-04-20 15:18 22.98881 49.12940 37758 ft 409 kts 277°
2026-04-20 15:18 22.99163 49.07808 37772 ft 409 kts 277°
2026-04-20 15:19 22.99500 49.01641 37761 ft 408 kts 277°
2026-04-20 15:19 22.99890 48.95645 37759 ft 407 kts 278°
2026-04-20 15:20 23.00401 48.89529 37759 ft 406 kts 278°
2026-04-20 15:20 23.02621 48.77709 37766 ft 402 kts 290°
2026-04-20 15:21 23.12532 48.55821 37776 ft 403 kts 296°
2026-04-20 15:21 23.22643 48.34043 37784 ft 404 kts 295°
2026-04-20 15:22 23.32750 48.12164 37771 ft 404 kts 295°
2026-04-20 15:22 23.42509 47.90945 37785 ft 404 kts 295°
2026-04-20 15:23 23.48598 47.77659 37823 ft 404 kts 295°
2026-04-20 15:23 23.51104 47.72179 37795 ft 404 kts 295°
2026-04-20 15:23 23.52354 47.69445 37402 ft 406 kts 295°
2026-04-20 15:24 23.53617 47.66678 36755 ft 406 kts 295°
2026-04-20 15:24 23.54878 47.63917 35926 ft 407 kts 295°
2026-04-20 15:24 23.56136 47.61160 35110 ft 407 kts 294°
2026-04-20 15:24 23.57401 47.58384 34220 ft 411 kts 294°
2026-04-20 15:25 23.58665 47.55610 33229 ft 415 kts 294°
2026-04-20 15:25 23.59958 47.52769 32230 ft 419 kts 294°
2026-04-20 15:25 23.61259 47.49907 31253 ft 424 kts 294°
2026-04-20 15:25 23.62571 47.47022 30544 ft 425 kts 293°
2026-04-20 15:26 23.63896 47.44108 29776 ft 432 kts 293°
2026-04-20 15:26 23.65241 47.41144 28940 ft 440 kts 293°
2026-04-20 15:26 23.66602 47.38145 28181 ft 440 kts 293°
2026-04-20 15:26 23.67958 47.35162 27444 ft 436 kts 293°
2026-04-20 15:27 23.69300 47.32207 26740 ft 433 kts 293°
2026-04-20 15:27 23.70630 47.29276 26044 ft 429 kts 292°
2026-04-20 15:27 23.71946 47.26371 25366 ft 426 kts 292°
2026-04-20 15:27 23.73253 47.23482 24687 ft 423 kts 292°
2026-04-20 15:28 23.74553 47.20608 24000 ft 421 kts 292°
2026-04-20 15:28 23.75844 47.17752 23352 ft 419 kts 292°
2026-04-20 15:28 23.77132 47.14900 22576 ft 417 kts 292°
2026-04-20 15:28 23.78406 47.12077 21898 ft 414 kts 292°
2026-04-20 15:29 23.79672 47.09272 21237 ft 410 kts 292°
2026-04-20 15:29 23.80932 47.06478 20605 ft 407 kts 292°
2026-04-20 15:29 23.82178 47.03711 19988 ft 405 kts 292°
2026-04-20 15:29 23.83417 47.00958 19373 ft 403 kts 292°
2026-04-20 15:30 23.84594 46.98342 18782 ft 403 kts 292°
2026-04-20 15:30 23.85812 46.95633 18171 ft 402 kts 292°
2026-04-20 15:30 23.87046 46.92888 17495 ft 401 kts 292°
2026-04-20 15:30 23.88341 46.90216 16839 ft 397 kts 301°
2026-04-20 15:31 23.90210 46.87983 16264 ft 402 kts 318°
2026-04-20 15:31 23.92584 46.86384 15718 ft 400 kts 328°
2026-04-20 15:31 23.95045 46.84976 15168 ft 399 kts 329°
2026-04-20 15:31 23.97501 46.83572 14624 ft 397 kts 329°
2026-04-20 15:32 23.99940 46.82156 14070 ft 396 kts 329°
2026-04-20 15:32 24.02355 46.80736 13507 ft 396 kts 329°
2026-04-20 15:32 24.04780 46.79297 12932 ft 394 kts 329°
2026-04-20 15:32 24.07181 46.77868 12441 ft 390 kts 329°
2026-04-20 15:33 24.09553 46.76454 12125 ft 391 kts 329°
2026-04-20 15:33 24.11968 46.75015 11983 ft 393 kts 329°
2026-04-20 15:33 24.14367 46.73588 11951 ft 389 kts 329°
2026-04-20 15:33 24.16734 46.72180 11929 ft 386 kts 329°
2026-04-20 15:34 24.19057 46.70796 11678 ft 385 kts 329°
2026-04-20 15:34 24.21420 46.69386 11385 ft 387 kts 329°
2026-04-20 15:34 24.23788 46.67974 11098 ft 387 kts 329°
2026-04-20 15:34 24.26150 46.66564 10900 ft 386 kts 329°
2026-04-20 15:35 24.28502 46.65158 10647 ft 387 kts 329°
2026-04-20 15:35 24.30888 46.63732 10301 ft 390 kts 329°
2026-04-20 15:35 24.33271 46.62309 10136 ft 388 kts 330°
2026-04-20 15:35 24.35708 46.61061 10064 ft 386 kts 338°
2026-04-20 15:36 24.38274 46.60178 9986 ft 387 kts 343°
2026-04-20 15:36 24.40871 46.59389 9993 ft 388 kts 343°
2026-04-20 15:36 24.43481 46.58602 9991 ft 390 kts 343°
2026-04-20 15:36 24.46076 46.57816 9991 ft 391 kts 343°
2026-04-20 15:37 24.48735 46.57003 10003 ft 392 kts 343°
2026-04-20 15:37 24.51325 46.56205 9993 ft 391 kts 343°
2026-04-20 15:37 24.53935 46.55395 9991 ft 390 kts 343°
2026-04-20 15:37 24.56548 46.54582 9988 ft 388 kts 343°
2026-04-20 15:38 24.59138 46.53774 9976 ft 381 kts 343°
2026-04-20 15:38 24.61625 46.52997 9975 ft 363 kts 343°
2026-04-20 15:38 24.64005 46.52255 9979 ft 346 kts 343°
2026-04-20 15:38 24.66271 46.51548 9978 ft 331 kts 343°
2026-04-20 15:39 24.68442 46.50870 9998 ft 317 kts 343°
2026-04-20 15:39 24.70545 46.50213 9991 ft 312 kts 343°
2026-04-20 15:39 24.72636 46.49558 10007 ft 313 kts 343°
2026-04-20 15:39 24.74735 46.48900 10015 ft 314 kts 343°
2026-04-20 15:40 24.76844 46.48241 10011 ft 316 kts 343°
2026-04-20 15:40 24.78958 46.47579 10013 ft 317 kts 343°
2026-04-20 15:40 24.81058 46.46955 10003 ft 314 kts 349°
2026-04-20 15:40 24.83214 46.47017 10012 ft 312 kts 16°
2026-04-20 15:41 24.85149 46.48062 10013 ft 310 kts 40°
2026-04-20 15:41 24.86596 46.49785 9998 ft 306 kts 60°
2026-04-20 15:41 24.87673 46.51789 9879 ft 304 kts 63°
2026-04-20 15:41 24.88867 46.53698 9598 ft 307 kts 45°
2026-04-20 15:42 24.90718 46.54882 9410 ft 312 kts 16°
2026-04-20 15:42 24.92864 46.55007 9309 ft 310 kts 348°
2026-04-20 15:42 24.94855 46.54171 9151 ft 306 kts 328°
2026-04-20 15:42 24.96690 46.52979 9086 ft 306 kts 327°
2026-04-20 15:43 24.98530 46.51780 9043 ft 308 kts 328°
2026-04-20 15:43 25.00368 46.50594 8880 ft 306 kts 328°
2026-04-20 15:43 25.02209 46.49417 8663 ft 305 kts 328°
2026-04-20 15:43 25.04042 46.48255 8441 ft 303 kts 329°
2026-04-20 15:44 25.05812 46.47136 8315 ft 287 kts 329°
2026-04-20 15:44 25.07492 46.46073 8183 ft 269 kts 329°
2026-04-20 15:44 25.09067 46.45077 8049 ft 254 kts 329°
2026-04-20 15:44 25.10561 46.44130 7986 ft 240 kts 329°
2026-04-20 15:45 25.11981 46.43227 7832 ft 232 kts 328°
2026-04-20 15:45 25.13362 46.42345 7509 ft 227 kts 328°
2026-04-20 15:45 25.14731 46.41471 7112 ft 226 kts 329°
2026-04-20 15:45 25.16090 46.40604 6723 ft 224 kts 329°
2026-04-20 15:46 25.17441 46.39741 6280 ft 225 kts 330°
2026-04-20 15:46 25.18866 46.39175 6078 ft 216 kts
2026-04-20 15:46 25.20260 46.39586 6074 ft 209 kts 38°
2026-04-20 15:46 25.21214 46.40793 6074 ft 213 kts 63°
2026-04-20 15:47 25.21947 46.42198 6055 ft 215 kts 63°
2026-04-20 15:47 25.22679 46.43620 6016 ft 210 kts 63°
2026-04-20 15:47 25.23397 46.45012 6012 ft 207 kts 63°
2026-04-20 15:47 25.24117 46.46390 6014 ft 208 kts 64°
2026-04-20 15:48 25.24801 46.47813 6013 ft 209 kts 73°
2026-04-20 15:48 25.24844 46.49367 6024 ft 203 kts 110°
2026-04-20 15:48 25.24044 46.50619 6027 ft 203 kts 142°
2026-04-20 15:48 25.22815 46.51415 6033 ft 207 kts 150°
2026-04-20 15:49 25.21548 46.52162 6021 ft 203 kts 150°
2026-04-20 15:49 25.20316 46.52882 6006 ft 199 kts 151°
2026-04-20 15:49 25.19085 46.53599 6011 ft 201 kts 152°
2026-04-20 15:49 25.17844 46.54320 6017 ft 202 kts 151°
2026-04-20 15:50 25.16593 46.55048 6012 ft 204 kts 152°
2026-04-20 15:50 25.15357 46.55815 6011 ft 204 kts 149°
2026-04-20 15:50 25.14153 46.56602 6000 ft 201 kts 149°
2026-04-20 15:50 25.12952 46.57385 5991 ft 195 kts 147°
2026-04-20 15:51 25.11809 46.58129 5994 ft 190 kts 147°
2026-04-20 15:51 25.10669 46.58894 5761 ft 190 kts 145°
2026-04-20 15:51 25.09573 46.59651 5404 ft 181 kts 144°
2026-04-20 15:51 25.08549 46.60351 5149 ft 167 kts 148°
2026-04-20 15:52 25.07497 46.60933 4868 ft 171 kts 149°
2026-04-20 15:52 25.06435 46.61513 4555 ft 170 kts 145°
2026-04-20 15:52 25.05410 46.62170 4215 ft 171 kts 144°
2026-04-20 15:53 25.03435 46.63538 3487 ft 164 kts 146°
2026-04-20 15:53 25.02457 46.64106 3125 ft 152 kts 146°
2026-04-20 15:53 25.01579 46.64659 2888 ft 144 kts 145°
2026-04-20 15:53 25.00702 46.65212 2756 ft 147 kts 144°
2026-04-20 15:54 24.99801 46.65801 2570 ft 155 kts 146°
2026-04-20 15:54 24.98873 46.66382 2505 ft 153 kts 147°
2026-04-20 15:54 24.97933 46.66961 2301 ft 154 kts 147°
2026-04-20 15:54 24.97009 46.67539 2083 ft 152 kts 145°
2026-04-20 15:55 24.96148 46.68084 2052 ft 129 kts 144°
2026-04-20 15:55 24.95478 46.68513 2055 ft 90 kts 150°
2026-04-20 15:55 24.95063 46.68794 2054 ft 48 kts 135°
2026-04-20 15:55 24.94970 46.69050 2051 ft 25 kts 76°
2026-04-20 15:56 24.94959 46.69178 2052 ft 18 kts 140°
2026-04-20 15:56 24.94852 46.69248 2054 ft 18 kts 148°
2026-04-20 15:56 24.94744 46.69317 2052 ft 18 kts 150°
2026-04-20 15:56 24.94636 46.69385 2052 ft 18 kts 150°
2026-04-20 15:57 24.94536 46.69449 2054 ft 15 kts 147°
2026-04-20 15:57 24.94533 46.69555 2051 ft 16 kts 64°
2026-04-20 15:57 24.94587 46.69658 2052 ft 16 kts 59°
2026-04-20 15:57 24.94642 46.69761 2053 ft 16 kts 59°
2026-04-20 15:58 24.94695 46.69865 2054 ft 16 kts 60°
2026-04-20 15:58 24.94749 46.69969 2056 ft 16 kts 60°
2026-04-20 15:58 24.94804 46.70071 2059 ft 16 kts 59°
2026-04-20 15:58 24.94858 46.70174 2059 ft 16 kts 60°
2026-04-20 15:59 24.94913 46.70277 2060 ft 16 kts 60°
2026-04-20 15:59 24.94966 46.70379 2060 ft 16 kts 60°
2026-04-20 15:59 24.95021 46.70483 2057 ft 16 kts 60°
2026-04-20 15:59 24.95081 46.70596 2055 ft 17 kts 60°
2026-04-20 16:00 24.95126 46.70684 2054 ft 11 kts 60°
2026-04-20 16:00 24.95158 46.70744 2053 ft 5 kts 60°
2026-04-20 16:00 24.95176 46.70779 2053 ft 6 kts 60°
2026-04-20 16:00 24.95187 46.70806 2052 ft 4 kts 77°
2026-04-20 16:01 24.95161 46.70885 2053 ft 16 kts 143°
2026-04-20 16:01 24.95066 46.70946 2054 ft 16 kts 150°
2026-04-20 16:01 24.94970 46.71006 2054 ft 16 kts 150°
2026-04-20 16:01 24.94876 46.71065 2052 ft 16 kts 150°